Home   Weather   Maribor   Past weeks

Flag for Slovenia Past Weather in Maribor, Slovenia — Yesterday and Last 2 Weeks

Now
27 °F

Fog.


Feels Like: 27 °F
Forecast: 28 / 48 °F
Wind: 1 mph from Northwest

Location: Maribor / Slivnica

Current Time: Dec 11, 2016 at 5:12:08 am

Latest Report: Dec 11, 2016 at 4:00 am


Visibility: 5 mi

Pressure: 30.17 "Hg

Humidity: 92%

Dew Point: 25 °F

Location of MariborLocation

Past Weather in Maribor — Graph

°F

Maribor Temperature Yesterday

Maximum temperature yesterday: 49 °F (at 3:00 pm)
Minimum temperature yesterday: 24 °F (at 5:00 am)
Average temperature yesterday: 33 °F

High & Low Weather Summary for the Past Weeks

 TemperatureHumidityPressure
High49 °F (Dec 10, 3:00 pm)99% (Dec 7, 11:00 pm)30.75 "Hg (Dec 7, 11:00 pm)
Low20 °F (Nov 30, 5:00 am)35% (Nov 30, 1:00 pm)29.89 "Hg (Nov 27, 2:00 pm)
Average33 °F81%30.33 "Hg
* Reported Nov 26 3:00 am — Dec 11 3:00 am, Maribor, Weather by CustomWeather, © 2016

Note: Actual official high and low records may vary slightly from our data, if they occured in-between our weather recording intervals... More about our weather records

Advertising

Maribor Weather History for the Previous 24 Hours

Scroll right to see more
 ConditionsComfort  
Time TempWeatherWind HumidityBarometerVisibility
3:00 am
Sun, Dec 11
27 °FFog.1 mph93%30.19 "Hg4 mi
2:00 am27 °FFog.1 mph87%30.21 "Hg6 mi
1:00 am29 °FFog.1 mph90%30.22 "Hg5 mi
12:00 am28 °FFog.1 mph90%30.23 "Hg4 mi
11:00 pm
Sat, Dec 10
29 °FFog.1 mph89%30.24 "Hg6 mi
10:00 pm29 °FFog.1 mph90%30.26 "Hg5 mi
9:00 pm30 °FClear.1 mph90%30.27 "Hg6 mi
8:00 pm32 °FPassing clouds.1 mph82%30.28 "Hg6 mi
7:00 pm33 °FPassing clouds.2 mph86%30.29 "Hg9 mi
6:00 pm33 °FPassing clouds.2 mph80%30.29 "Hg12 mi
5:00 pm35 °FPassing clouds.1 mph75%30.29 "Hg12 mi
4:00 pm43 °FPartly sunny.2 mph60%30.27 "Hg16 mi
3:00 pm49 °FPartly sunny.1 mph44%30.27 "Hg16 mi
2:00 pm48 °FPartly sunny.1 mph44%30.29 "Hg16 mi
1:00 pm48 °FPartly sunny.No wind42%30.29 "Hg19 mi
12:00 pm43 °FScattered clouds.1 mph57%30.34 "Hg19 mi
11:00 am40 °FScattered clouds.1 mph67%30.36 "Hg19 mi
10:00 am34 °FChilly.1 mph81%30.39 "Hg6 mi
9:00 am30 °FScattered clouds.1 mph86%30.40 "Hg19 mi
8:00 am26 °FPartly sunny.1 mph92%30.41 "Hg9 mi
7:00 am25 °FPassing clouds.1 mph93%30.41 "Hg7 mi
6:00 am24 °FPassing clouds.1 mph92%30.41 "Hg7 mi
5:00 am24 °FFog.1 mph92%30.41 "Hg4 mi
Weather by CustomWeather, © 2016

See weather overviewHow to use our weather pages